Location: Kuffner-Sternwarte
(48.2130°N, 16.2960°E)
Time: 15:39:39
(UTC+02:00)

COROT - Pass Details

Date: 15 May 2026
Orbit: 594 x 855 km, 90.1° (Epoch: 21 May)

Event Time Altitude Azimuth Distance (km) Brightness Sun altitude
Rises 23:15:39 0° 4° (N) 3,333 10.4 -19.4°
Reaches altitude 10° 23:18:09 10° 9° (N) 2,363 9.4 -19.6°
Maximum altitude 23:23:19 55° 87° (E) 896 6.2 -19.9°
Enters shadow 23:24:43 41° 139° (SE) 1,060 6.2 -20.0°
